Flag for U.S.A. Weather past 2 weeks in Chicago, Illinois, U.S.A.

Now
75 °F

Mostly cloudy.


Feels Like: 77 °F
Forecast: 64 / 75 °F
Wind: 14 mph from South

Location: Chicago Midway Airport

Current Time: May 25, 2015 at 3:11:05 AM

Latest Report: May 25, 2015 at 1:53 AM


Visibility: 10 mi

Pressure: 29.84 "Hg

Humidity: 66%

Dew point: 63 °F

Location of ChicagoLocation

Historic Weather in Chicago — Graph

°F

Chicago temperature yesterday

Maximum temperature yesterday: 76 °F (at 11:53 PM)
Minimum temperature yesterday: 63 °F (at 7:53 AM)
Average temperature yesterday: 69 °F

Past Weeks' High & Low Weather Summary

 TemperatureHumidityPressure
High84 °F (May 17, 5:53 PM)97% (May 10, 5:53 AM)30.53 "Hg (May 10, 5:53 AM)
Low44 °F (May 19, 9:53 PM)21% (May 23, 4:53 PM)29.76 "Hg (May 11, 2:53 PM)
Average61 °F63%30.09 "Hg
* Reported May 10 1:03 AM — May 25 1:53 AM, Chicago, Weather by CustomWeather, © 2015

Note: Actual official high and low records may vary slightly from our data, if they occured in-between our weather recording intervals... More about our weather records

Advertising

Chicago weather history for previous 24 hours

 ConditionsComfort  
Time TempWeatherWind HumidityBarometerVisibility
1:53 AM
Mon, May 25
75 °FMostly cloudy.14 mph66%29.84 "Hg10 mi
12:53 AM76 °FMostly cloudy.16 mph64%29.87 "Hg10 mi
11:53 PM
Sun, May 24
76 °FPassing clouds.13 mph64%29.89 "Hg10 mi
10:53 PM75 °FPassing clouds.12 mph66%29.90 "Hg10 mi
9:53 PM71 °FPassing clouds.7 mph78%29.90 "Hg10 mi
8:53 PM66 °FBroken clouds.5 mph90%29.91 "Hg10 mi
7:53 PM66 °FBroken clouds.6 mph90%29.92 "Hg8 mi
6:53 PM68 °FBroken clouds.6 mph90%29.92 "Hg10 mi
5:53 PM67 °FBroken clouds.7 mph90%29.93 "Hg8 mi
4:53 PM65 °FLight rain. Fog.5 mph87%30.00 "Hg5 mi
3:53 PM70 °FLight rain. Mostly cloudy.10 mph64%29.96 "Hg9 mi
2:53 PM74 °FCloudy.9 mph53%30.00 "Hg10 mi
1:53 PM74 °FCloudy.10 mph52%30.03 "Hg10 mi
12:53 PM74 °FMostly cloudy.8 mph52%30.08 "Hg10 mi
11:53 AM74 °FMostly cloudy.9 mph48%30.09 "Hg10 mi
10:53 AM72 °FMore clouds than sun.8 mph53%30.12 "Hg10 mi
9:53 AM67 °FMostly cloudy.7 mph68%30.14 "Hg10 mi
8:53 AM64 °FLight rain. Mostly cloudy.9 mph75%30.16 "Hg10 mi
7:53 AM63 °FLight rain. Mostly cloudy.No wind75%30.16 "Hg10 mi
6:53 AM64 °FLight rain. Mostly cloudy.8 mph63%30.17 "Hg10 mi
5:53 AM66 °FMostly cloudy.3 mph52%30.16 "Hg10 mi
4:53 AM66 °FPassing clouds.No wind52%30.17 "Hg10 mi
3:53 AM67 °FPassing clouds.3 mph49%30.17 "Hg10 mi
Weather by CustomWeather, © 2015

See weather overviewHow to use our weather pages